Paganella, Italy

5:35 AM CEST on August 21, 2017 (GMT +0200)
Paganella

Weather History for LIVP - April, 2014

Change the Weather History Date:

Friday, April 11, 2014

  Actual Average Record
Temperature  
Mean Temperature 39 °F -  
Max Temperature 43 °F 38 °F 59 °F (1997)
Min Temperature 35 °F 29 °F 17 °F (2006)
Degree Days  
Heating Degree Days 26    
Moisture  
Dew Point 29 °F    
Average Humidity 62    
Maximum Humidity 93    
Minimum Humidity 31    
Precipitation  
Precipitation 0.00 in 0.07 in - ()
Sea Level Pressure  
Sea Level Pressure 30.02 in    
Wind  
Wind Speed 2 mph ()    
Max Wind Speed 6 mph    
Max Gust Speed -    
Visibility 6.2 miles    
Events      
Averages and records for this station are not official NWS values.
T = Trace of Precipitation, MM = Missing Value Source: Averaged Metar Reports

Daily Weather History Graph

Daily Weather History Graph

Search for Another Location

Airport or City:

Trip Planner

Search our weather history database for the weather conditions in past years. The results will help you decide how hot, cold, wet, or windy it might be!

Date:

Astronomy

Apr. 11, 2014 Rise Set
Actual Time 6:37 AM CEST 7:57 PM CEST
Civil Twilight 6:06 AM CEST 8:28 PM CEST
Nautical Twilight 5:28 AM CEST 9:06 PM CEST
Astronomical Twilight 4:49 AM CEST 9:46 PM CEST
Moon 4:10 PM CEST (4/11) 4:36 AM CEST (4/11)
Length of Visible Light 14h 22m
Length of Day
13h 20m
Waxing Gibbous, 85% of the Moon is Illuminated
Apr 11
Waxing Gibbous
Apr 15
Full
Apr 22
Last Quarter
Apr 29
New
May 7
First Quarter

Hourly Weather History & Observations

Time (CEST) Temp. Windchill Dew Point Humidity Pressure Visibility Wind Dir Wind Speed Gust Speed Precip Events Conditions
12:00 AM 36 °F - 26 °F 55%  in 37 mi West 4.6 mph - -  
12:55 AM 35.6 °F - 26.6 °F 70% 30.04 in - Calm Calm - N/A   Clear
1:00 AM 36 °F - 26 °F 55%  in 37 mi Calm Calm - -  
1:55 AM 35.6 °F - 26.6 °F 70% 30.04 in - Calm Calm - N/A   Clear
2:00 AM 36 °F - 26 °F 57%  in 37 mi Calm Calm - -  
2:55 AM 35.6 °F - 26.6 °F 70% 30.04 in - Calm Calm - N/A   Clear
3:00 AM 35 °F - 27 °F 62%  in 37 mi Calm Calm - -  
3:55 AM 35.6 °F 32.8 °F 21.2 °F 56% 30.04 in - SSW 3.5 mph - N/A   Clear
4:00 AM 36 °F - 22 °F 43%  in 44 mi SSW 3.5 mph - -   Clear
4:55 AM 37.4 °F 34.9 °F 19.4 °F 48% 30.01 in - SSW 3.5 mph - N/A   Clear
5:00 AM 37 °F - 20 °F 37%  in 44 mi SSW 3.5 mph - -   Clear
5:55 AM 37.4 °F - 17.6 °F 45% 30.01 in 6.2 mi South 2.3 mph - N/A   Partly Cloudy
6:00 AM 37 °F - 17 °F 31%  in 47 mi South 2.3 mph - -   Scattered Clouds
6:55 AM 37.4 °F 33.8 °F 19.4 °F 48% 30.01 in - North 4.6 mph - N/A   Clear
7:00 AM 37 °F - 20 °F 37%  in 47 mi North 4.6 mph - -   Clear
7:55 AM 39.2 °F - 24.8 °F 56% 30.01 in - Calm Calm - N/A   Clear
8:00 AM 39 °F - 24 °F 43%  in 47 mi Calm Calm - -   Scattered Clouds
8:55 AM 39.2 °F 37.0 °F 24.8 °F 56% 30.01 in - SSW 3.5 mph - N/A   Clear
9:00 AM 39 °F - 24 °F 43%  in 47 mi SSW 3.5 mph - -   Scattered Clouds
9:55 AM 39.2 °F - 24.8 °F 56% 30.04 in - South 2.3 mph - N/A   Clear
10:00 AM 39 °F - 25 °F 44%  in 47 mi South 2.3 mph - -   Clear
10:55 AM 41.0 °F - 28.4 °F 61% 30.04 in - Calm Calm - N/A   Clear
11:00 AM 40 °F - 28 °F 49%  in 44 mi Calm Calm - -   Clear
11:55 AM 41.0 °F - 30.2 °F 65% 30.04 in - Calm Calm - N/A   Clear
12:00 PM 40 °F - 29 °F 55%  in 44 mi Calm Calm - -   Clear
12:55 PM 41.0 °F - 30.2 °F 65% 30.04 in - South 2.3 mph - N/A   Clear
1:00 PM 41 °F - 30 °F 55%  in 44 mi South 2.3 mph - -   Clear
1:55 PM 41.0 °F - 32.0 °F 70% 30.04 in - Calm Calm - N/A   Clear
2:00 PM 41 °F - 31 °F 58%  in 44 mi Calm Calm - -   Clear
2:55 PM 41.0 °F - 32.0 °F 70% 30.04 in - Calm Calm - N/A   Clear
3:00 PM 41 °F - 33 °F 63%  in 37 mi Calm Calm - -   Clear
3:55 PM 42.8 °F 41.1 °F 32.0 °F 66% 30.01 in - South 3.5 mph - N/A   Clear
4:00 PM 42 °F - 33 °F 60%  in 37 mi South 3.5 mph - -   Partly Cloudy
4:55 PM 41.0 °F 38.0 °F 33.8 °F 76% 30.01 in - South 4.6 mph - N/A   Clear
5:00 PM 42 °F - 33 °F 62%  in 37 mi South 4.6 mph - -   Partly Cloudy
5:55 PM 41.0 °F 38.0 °F 33.8 °F 76% 30.01 in - SSW 4.6 mph - N/A   Clear
6:00 PM 41 °F - 34 °F 68%  in 37 mi SSW 4.6 mph - -   Mostly Cloudy
6:55 PM 41.0 °F 37.1 °F 33.8 °F 76% 30.01 in - SSW 5.8 mph - N/A   Clear
7:00 PM 41 °F - 34 °F 69%  in 37 mi SSW 5.8 mph - -   Mostly Cloudy
7:55 PM 39.2 °F 35.9 °F 33.8 °F 81% 30.01 in - SSW 4.6 mph - N/A   Clear
8:00 PM 39 °F - 34 °F 74%  in 25 mi SSW 4.6 mph - -   Mostly Cloudy
8:55 PM 39.2 °F 35.9 °F 33.8 °F 81% 30.01 in 6.2 mi SSW 4.6 mph - N/A   Scattered Clouds
9:00 PM 39 °F - 33 °F 71%  in 25 mi SSW 4.6 mph - -   Mostly Cloudy
9:55 PM 39.2 °F 35.9 °F 33.8 °F 81% 30.01 in 6.2 mi SSW 4.6 mph - N/A   Scattered Clouds
10:00 PM 39 °F - 34 °F 76%  in 22 mi SSW 4.6 mph - -   Partly Cloudy
10:55 PM 37.4 °F 33.8 °F 35.6 °F 93% 30.01 in - SSW 4.6 mph - N/A   Clear
11:00 PM 38 °F - 35 °F 85%  in 22 mi SSW 4.6 mph - -   Partly Cloudy
11:55 PM 37.4 °F 33.8 °F 35.6 °F 93% 30.01 in - SSW 4.6 mph - N/A   Clear